Location: Birkungen
(51.3658°N, 10.3375°E)
Time: 04:00:40
(UTC+00:00)

Daily predictions for brighter satellites

Satellite Brightness Start Highest point End
(mag) Time Altitude Azimuth Time Altitude Azimuth Time Altitude Azimuth
CZ-4C R/B 3.7 00:06:34 33° NNW 00:06:48 33° NNW 00:12:52 10° NE
USA 234 3.7 00:01:38 10° E 00:07:47 56° NNE 00:07:47 56° NNE
Cosmos 2369 Rocket 3.7 00:10:56 31° N 00:10:56 31° N 00:14:29 10° NNE
ADEOS II 3.9 00:40:41 10° NE 00:44:28 24° E 00:44:28 24° E
Cosmos 2227 Rocket 3.7 00:51:26 10° NNW 00:54:07 29° NNW 00:54:07 29° NNW
Cosmos 2181 Rocket 4.3 00:58:47 61° NE 00:58:47 61° NE 01:04:08 10° NNE
SL-16 R/B 3.2 01:15:10 43° NW 01:15:10 43° NW 01:19:18 10° NNW
USA 267 4.3 01:07:36 10° ENE 01:13:06 32° SE 01:13:06 32° SE
SJ 16-02 4.1 01:16:23 10° N 01:19:18 17° NE 01:22:13 10° E
CZ-2D R/B 2.7 01:14:45 10° NNE 01:18:48 53° NNE 01:18:48 53° NNE
ATLAS 2AS CENTAUR R/B 4.3 01:13:22 10° NW 01:20:28 36° NNE 01:27:08 10° ENE
NOSS 2-2 (D) 4.5 01:22:27 72° NE 01:22:27 72° NE 01:29:32 10° SE
Cosmos 1943 Rocket 4.4 01:21:06 14° NW 01:22:33 15° NNW 01:25:42 10° N
Resurs 1-4 Rocket 2.7 01:21:53 10° NNE 01:25:56 53° N 01:25:56 53° N
Lacrosse 5 3.3 01:29:27 30° ESE 01:29:27 30° ESE 01:32:42 10° ENE
ATLAS 5 CENTAUR R/B 2.9 01:30:41 38° NNE 01:30:41 38° NNE 01:34:03 10° NE
NPP 4.0 01:25:43 10° NNE 01:30:13 63° N 01:30:13 63° N
SL-08 R/B 4.0 01:37:45 51° NE 01:37:45 51° NE 01:41:54 10° N
Cosmos 2297 Rocket 4.3 01:38:18 10° NW 01:39:21 15° NW 01:39:21 15° NW
Cosmos 1818 3.8 01:44:09 64° N 01:44:09 64° N 01:49:05 10° NE
AQUA 4.5 01:45:58 10° N 01:49:34 49° N 01:49:34 49° N
USA 234 3.2 01:44:14 10° ESE 01:50:47 87° NNE 01:55:07 23° WNW
Timation 1 Rocket 4.4 01:44:54 10° NNW 01:50:56 76° ENE 01:56:57 10° SE
Cosmos 1470 Rocket 4.3 01:47:08 10° N 01:50:50 51° NE 01:50:50 51° NE
Cosmos 1992 Rocket 4.3 01:54:52 56° NNW 01:54:52 56° NNW 01:59:25 10° NNE
Cosmos 1777 Rocket 4.4 01:49:33 10° NNW 01:53:37 55° NNW 01:53:37 55° NNW
Cosmos 2369 Rocket 4.4 01:52:43 12° NW 01:54:50 14° NNW 01:57:52 10° N
CZ-4C R/B 4.3 01:51:44 10° NW 01:57:09 30° N 02:03:30 10° ENE
Cosmos 1821 Rocket 3.9 01:52:13 10° N 01:58:35 89° ENE 02:00:05 56° S
CZ-4B R/B 3.4 01:53:49 10° NNE 01:58:43 83° N 01:58:43 83° N
Cosmos 1697 Rocket 2.7 02:01:35 65° SSE 02:02:08 70° ESE 02:07:45 10° NNE
Cosmos 972 Rocket 4.1 02:05:43 60° SE 02:06:04 62° ESE 02:10:58 10° NNE
NOSS 2-2 (C) 4.3 02:06:12 61° W 02:07:06 70° SW 02:14:35 10° SSE
Cosmos 1980 Rocket 3.0 02:05:36 35° SSE 02:07:17 45° ESE 02:12:39 10° NE
Cosmos 1934 Rocket 4.1 02:03:53 10° N 02:09:57 68° ENE 02:15:16 14° SSE
Cosmos 2263 Rocket 2.8 02:05:26 10° NNW 02:11:00 55° NE 02:16:34 10° SE
Cosmos 1933 4.1 02:13:42 48° N 02:13:42 48° N 02:16:45 10° N
Meteor 1-26 Rocket 4.4 02:11:26 43° SSE 02:13:01 63° E 02:18:23 10° NNE
Cosmos 1515 Rocket 4.1 02:12:56 50° SE 02:13:31 54° E 02:17:52 10° NNE
Meteor 1-25 Rocket 4.1 02:08:19 10° NNW 02:14:08 74° W 02:14:52 65° SSW
Gbstr 26 Del rocket 4.4 02:18:38 32° W 02:22:50 79° SSW 02:30:24 10° ESE
SL-16 R/B 4.4 02:19:35 10° SE 02:23:35 20° E 02:27:35 10° NE
Cosmos 1328 Rocket 3.6 02:24:02 72° NW 02:24:02 72° NW 02:28:13 10° N
ADEOS II 2.1 02:19:49 10° N 02:25:01 61° WNW 02:25:24 59° W
CZ-3B R/B 1.9 02:25:23 82° ESE 02:25:23 82° ESE 02:32:43 10° ENE
Celestis-02/Orion 38 4.4 02:20:12 10° SSE 02:25:28 86° WSW 02:30:39 10° NNW
Cosmos 1500 4.4 02:22:06 10° N 02:25:48 42° ENE 02:28:34 16° SE
Cosmos 1151 Rocket 3.2 02:26:32 59° NW 02:26:32 59° NW 02:30:20 10° N
USA 305 3.1 02:27:21 60° SE 02:27:21 60° SE 02:31:20 10° ENE
Nadezhda 3 Rocket 3.8 02:26:58 49° SSW 02:28:43 75° WNW 02:34:53 10° N
Cosmos 1933 Rocket 3.4 02:24:22 10° N 02:28:45 87° W 02:28:51 85° SSW
Cosmos 2227 4.3 02:23:31 10° NNW 02:29:14 76° ENE 02:34:51 10° SE
ARIANE 5 R/B 2.5 02:24:48 10° NNE 02:29:57 83° ESE 02:31:22 48° S
USA 306 3.0 02:31:23 64° SE 02:31:23 64° SE 02:35:31 10° ENE
Cosmos 1656 4.0 02:32:28 43° WNW 02:33:13 46° NW 02:38:33 10° NNE
IDEFIX/ARIANE 42P 2.7 02:29:06 10° NNE 02:34:23 72° ESE 02:36:51 32° S
CZ-4C R/B 3.9 02:32:38 20° SE 02:34:49 49° ENE 02:38:17 10° N
IRS-1D 3.9 02:29:45 10° N 02:34:53 47° WNW 02:35:24 46° W
Cosmos 1605 Rocket 4.3 02:30:13 10° N 02:36:38 72° ENE 02:43:01 10° SSE
Cosmos 1535 Rocket 4.4 02:31:37 10° N 02:38:02 83° W 02:44:26 10° S
Meteor 1-14 Rocket 4.1 02:32:37 10° NNW 02:38:16 80° W 02:42:39 17° S
ASTEX 1 3.4 02:34:14 10° N 02:39:16 88° E 02:41:21 36° S
CZ-2C R/B 4.3 02:35:07 10° NNE 02:39:38 30° E 02:44:10 10° SSE
Cosmos 2228 Rocket 3.7 02:39:36 25° SSE 02:41:56 55° E 02:46:16 10° NNE
Meteor 1-5 Rocket 4.4 02:37:55 10° N 02:43:14 67° ENE 02:48:35 10° SSE
CBERS-1 4.5 02:39:13 10° N 02:44:01 41° WNW 02:44:31 40° W
CZ-2D R/B 3.4 02:42:55 10° NNE 02:47:09 89° E 02:48:18 48° SSW
Cosmos 1869 Rocket 3.9 02:43:48 10° N 02:48:09 63° ENE 02:52:26 10° SSE
NOSS 3-4 (A) 4.3 02:42:00 10° NW 02:48:42 62° NE 02:56:10 10° ESE
NOSS 3-4 (C) 4.3 02:42:06 10° NW 02:48:48 61° NE 02:56:16 10° ESE
IRS-1C 4.2 02:46:01 10° N 02:51:15 56° WNW 02:52:48 41° WSW
USA 267 3.2 02:50:23 10° ENE 02:56:58 83° SSE 03:00:27 31° SW
Cosmos 1238 Rocket 4.0 02:51:24 10° NNW 02:57:58 64° W 03:04:02 10° S
SJ 16-02 1.2 02:54:05 10° NNW 02:58:30 83° WSW 03:02:54 10° SSE
CZ-2C R/B 2.8 02:54:45 10° NNE 02:58:33 73° ESE 03:00:12 32° S
USA 307 2.8 02:57:59 53° WSW 02:58:56 84° SSE 03:03:13 10° ENE
CZ-2D R/B 3.7 02:55:54 10° N 02:59:27 18° NW 03:00:07 18° WNW
Cosmos 1782 2.9 02:59:09 52° W 02:59:31 55° WNW 03:03:30 10° N
NOSS 3-3 (A) 4.4 02:56:41 22° SSW 03:00:23 56° SE 03:06:50 10° NE
NOSS 3-3 (C) 4.4 02:56:51 22° SSW 03:00:31 55° SE 03:06:54 10° NE
Cosmos 44 3.2 02:59:36 37° SSW 03:01:18 73° SE 03:06:00 10° NE
USA 308 2.8 03:01:02 50° WSW 03:02:07 86° SSE 03:06:25 10° ENE
Meteor 1-4 Rocket 3.8 02:59:37 13° SSE 03:02:25 38° E 03:05:43 10° NNE
Cosmos 389 Rocket 2.4 03:02:26 60° W 03:02:36 61° WNW 03:06:10 10° N
USA 276 2.1 03:04:24 69° S 03:04:27 69° S 03:07:39 10° E
Cosmos 2278 3.7 03:02:25 33° SW 03:05:06 72° WNW 03:10:50 10° NNE
Resurs 1-4 Rocket 3.8 03:03:03 10° NNW 03:06:13 16° NW 03:07:00 16° WNW
Cosmos 990 Rocket 4.0 03:01:29 10° NNW 03:06:43 86° ENE 03:11:56 10° SSE
ATLAS CENTAUR R/B 3.8 02:56:35 10° WNW 03:09:38 62° N 03:14:27 10° E
H-2A R/B 2.0 03:05:41 10° S 03:10:03 73° WSW 03:14:34 10° NNW
Lacrosse 5 1.9 03:08:39 34° WSW 03:10:50 74° NNW 03:15:55 10° ENE
ERBS 3.7 03:11:03 25° S 03:12:10 31° SE 03:15:12 10° ENE
ATLAS 2AS CENTAUR R/B 3.2 03:05:05 10° NW 03:12:45 68° NE 03:19:49 10° ESE
Cosmos 2369 4.1 03:11:30 30° WSW 03:13:58 47° NW 03:19:32 10° NNE
ATLAS 5 CENTAUR R/B 3.6 03:12:12 14° NW 03:14:58 23° NNW 03:19:07 10° NE
Cosmos 1727 Rocket 4.4 03:09:05 10° S 03:15:22 67° E 03:21:39 10° NNE
Meteor 1-11 Rocket 3.8 03:15:17 10° NNW 03:21:09 87° E 03:26:50 10° SSE
Cosmos 1339 Rocket 4.4 03:15:35 11° SSW 03:21:39 72° WNW 03:27:52 10° N
Landsat 5 3.7 03:18:18 10° S 03:22:45 55° W 03:27:09 10° NNW
ALOS 4.3 03:18:56 10° NNE 03:22:59 29° E 03:27:01 10° SSE
ADEOS Rocket 3.2 03:17:12 10° SSE 03:23:56 83° ENE 03:29:59 10° NNW
CZ-4B R/B 2.3 03:21:48 10° SSE 03:24:53 49° ENE 03:28:04 10° N
Cosmos 1459 Rocket 4.3 03:22:55 10° N 03:29:01 67° ENE 03:35:02 10° SSE
Spot 4 Rocket 4.3 03:25:24 10° N 03:30:21 47° WNW 03:33:39 20° SW
MSX 3.9 03:26:56 10° N 03:32:39 61° WNW 03:37:58 12° SSW
ERS-2 2.0 03:29:14 10° S 03:32:52 66° WSW 03:36:33 10° NNW
USA 234 3.7 03:28:12 10° SSE 03:34:15 40° SW 03:40:20 10° WNW
Meteor 1-27 Rocket 4.2 03:30:23 10° S 03:36:17 70° E 03:42:10 10° NNE
COSMO-SKYMED 1 4.5 03:32:43 10° SE 03:36:36 33° ENE 03:40:32 10° N
Cosmos 1689 Rocket 4.3 03:36:20 10° SE 03:38:58 29° ENE 03:41:37 10° N
Cosmos 1536 2.8 03:37:09 10° NNW 03:41:15 86° W 03:45:19 10° S
Cosmos 2360 Rocket 3.8 03:36:14 10° S 03:41:17 34° ESE 03:46:21 10° NE
Cosmos 1898 Rocket 3.5 03:36:29 10° NNW 03:41:38 57° WSW 03:46:47 10° S
X-37B 2.2 03:42:02 19° SSW 03:42:38 20° SSW 03:45:04 10° SE
IRIDIUM 104 4.5 03:39:08 10° NNW 03:44:13 52° W 03:49:16 10° SSW
Cosmos 1697 Rocket 3.8 03:43:21 17° W 03:46:37 29° NW 03:51:29 10° NNE
CZ-4C R/B 3.7 03:40:37 10° NW 03:47:11 52° NNE 03:54:54 10° ESE
Meteor 1-31 Rocket 4.4 03:43:44 10° NNE 03:47:17 35° E 03:50:50 10° SSE
Cosmos 372 Rocket 4.3 03:44:19 10° NNW 03:49:29 69° ENE 03:54:35 10° SSE
deb Chang Zheng 4 4.2 03:45:17 10° NNE 03:49:34 58° ESE 03:53:46 10° S
Cosmos 1980 Rocket 2.8 03:47:24 17° WSW 03:51:22 41° NW 03:56:43 10° NNE
Cosmos 858 Rocket 4.5 03:47:16 10° NNW 03:52:25 63° WSW 03:57:32 10° S
Cosmos 2278 Rocket 4.4 03:49:50 10° NNW 03:54:30 25° NE 03:59:09 10° E
Cosmos 2263 Rocket 2.9 03:49:46 10° NW 03:54:40 31° WSW 03:59:35 10° SSW
Cosmos 921 Rocket 3.4 03:52:49 15° SW 03:55:55 41° WNW 03:59:56 10° N
Cosmos 1844 4.1 03:51:03 10° NNW 03:56:38 65° NE 04:02:09 10° SE
Cosmos 2322 Rocket 2.4 03:52:12 10° SSW 03:57:51 76° ESE 04:03:34 10° NNE
USA 32 4.1 03:53:55 10° NNW 03:59:03 55° W 04:04:09 10° SSW
Cosmos 1844 Rocket 2.8 03:55:22 10° NNW 04:01:03 81° ENE 04:06:43 10° SSE
Cosmos 2173 Rocket 4.0 03:55:25 10° NNW 04:01:44 76° W 04:08:05 10° S
ADEOS II 4.0 04:01:22 10° NNW 04:03:43 13° NW 04:06:05 10° WNW
COSMOS 2455 4.5 03:58:56 10° NNW 04:04:24 34° NE 04:09:51 10° E
Cosmos 1812 3.6 04:01:20 12° SW 04:04:26 30° WNW 04:07:54 10° N
Cosmos 1707 Rocket 3.6 04:00:31 10° SSW 04:04:48 60° WNW 04:09:08 10° N
Cosmos 1666 3.4 04:03:28 10° NNW 04:06:54 32° W 04:10:18 10° SSW
SL-16 R/B 2.2 04:01:20 10° SSW 04:07:01 82° WNW 04:12:44 10° NNE
USA 305 3.1 04:03:31 13° W 04:07:12 64° N 04:11:26 10° ENE
Cosmos 1937 Rocket 3.7 04:02:32 10° NW 04:07:29 47° WSW 04:12:22 10° S
ARIANE 5 R/B 4.0 04:04:53 10° N 04:08:27 19° NW 04:11:42 11° W
ADEOS 3.6 04:04:09 10° NNE 04:09:25 88° ESE 04:14:39 10° SSW
USA 306 3.2 04:07:32 12° W 04:11:25 63° N 04:15:39 10° ENE
IDEFIX/ARIANE 42P 3.9 04:09:28 10° N 04:13:30 23° WNW 04:17:32 10° WSW
CZ-2C R/B 2.8 04:13:07 10° N 04:18:01 47° WNW 04:22:58 10° SW
Cosmos 1733 Rocket 3.2 04:14:47 10° NNW 04:19:00 48° W 04:23:10 10° SSW
Cosmos 841 Rocket 3.7 04:14:45 10° SSW 04:19:59 82° ESE 04:25:17 10° NNE
Cosmos 2228 Rocket 4.5 04:17:15 10° WSW 04:20:30 20° WNW 04:23:49 10° NNW
Cosmos 2061 Rocket 4.1 04:14:27 10° NNW 04:20:56 80° W 04:27:21 10° S
SAR-Lupe-4 4.0 04:18:28 10° S 04:21:52 40° W 04:25:19 10° NNW
SKYMED 2 3.6 04:20:10 10° SSE 04:24:30 90° ENE 04:28:53 10° NNW
Cosmos 44 Rocket 4.0 04:20:07 10° SSW 04:24:45 56° SE 04:29:33 10° NE
SL-4 R/B 3.2 04:22:37 10° SW 04:27:04 47° SSE 04:31:42 10° ENE
Cosmos 1763 Rocket 3.8 04:23:40 10° SW 04:28:51 52° WNW 04:34:03 10° NNE
Cosmos 2219 Rocket 4.2 04:26:51 10° SSE 04:31:50 33° ESE 04:36:51 10° NE
Cosmos 2016 Rocket 4.0 04:26:21 10° NNW 04:32:26 66° W 04:38:27 10° S
FALCON 9 DEB 3.9 04:31:18 10° SW 04:34:36 47° SSE 04:37:56 10° ENE
SJ-12 4.2 04:31:57 10° NNE 04:36:06 76° ESE 04:40:14 10° S
